Location: ??????
(55.2000°N, 38.3000°E)
Time: 00:37:38
(UTC+00:00)

Cosmos 2369 Rocket - Pass Details

Date: 15 November 2025
Orbit: 826 x 853 km, 71.0° (Epoch: 12 December)

Event Time Altitude Azimuth Distance (km) Brightness Sun altitude
Exits shadow 01:59:54 32° 338° (NNW) 1,412 3.2 -25.3°
Maximum altitude 02:02:33 68° 52° (NE) 914 2.4 -24.9°
Drops below altitude 10° 02:08:13 10° 136° (SE) 2,477 5.1 -24.1°
Sets 02:10:42 0° 139° (SE) 3,411 5.9 -23.7°
